Home   Weather   Meilen   Past weeks

Flag for Switzerland Past Weather in Meilen, Zurich, Switzerland — Yesterday and Last 2 Weeks

Now
32 °F

Chilly.


Feels Like: 27 °F
Forecast: 21 / 38 °F
Wind: 6 mph from Northeast

Location: Zuerich-Fluntern

Current Time: Dec 4, 2016 at 1:13:04 am

Latest Report: Dec 4, 2016 at 12:00 am


Visibility: N/A

Pressure: 30.27 "Hg

Humidity: 75%

Dew Point: 25 °F

Location of MeilenLocation

Past Weather in Meilen — Graph

°F

Meilen Temperature Yesterday

Maximum temperature yesterday: 36 °F (at 9:00 am)
Minimum temperature yesterday: 32 °F (at 12:00 am)
Average temperature yesterday: 35 °F

High & Low Weather Summary for the Past Weeks

 TemperatureHumidityPressure
High63 °F (Nov 22, 12:00 am)100% (Dec 1, 6:00 am)30.65 "Hg (Dec 1, 6:00 am)
Low25 °F (Nov 29, 8:00 am)33% (Nov 21, 11:00 pm)29.58 "Hg (Nov 21, 12:00 pm)
Average40 °F81%30.09 "Hg
* Reported Nov 18 11:00 pm — Dec 3 11:00 pm, Meilen, Weather by CustomWeather, © 2016

Note: Actual official high and low records may vary slightly from our data, if they occured in-between our weather recording intervals... More about our weather records

Advertising

Meilen Weather History for the Previous 24 Hours

Scroll right to see more
 ConditionsComfort  
Time TempWeatherWind HumidityBarometerVisibility
11:00 pm
Sat, Dec 3
33 °FChilly.6 mph75%30.26 "HgN/A
10:00 pm33 °FChilly.5 mph75%30.24 "HgN/A
9:00 pm34 °FChilly.7 mph74%30.23 "HgN/A
8:00 pm34 °FChilly.6 mph79%30.23 "HgN/A
7:00 pm34 °FChilly.2 mph82%30.22 "HgN/A
6:00 pm34 °FChilly.No wind82%30.22 "HgN/A
5:00 pm33 °FChilly.1 mph84%30.21 "HgN/A
4:00 pm35 °FChilly.2 mph76%30.18 "HgN/A
3:00 pm36 °FChilly.3 mph76%30.17 "HgN/A
2:00 pm36 °FChilly.5 mph76%30.16 "HgN/A
1:00 pm36 °FChilly.3 mph78%30.16 "HgN/A
12:00 pm36 °FChilly.5 mph81%30.17 "HgN/A
11:00 am36 °FChilly.5 mph81%30.18 "HgN/A
10:00 am36 °FChilly.5 mph84%30.16 "HgN/A
9:00 am36 °FChilly.3 mph85%30.15 "HgN/A
8:00 am36 °FChilly.5 mph87%30.14 "HgN/A
7:00 am36 °FChilly.3 mph89%30.14 "HgN/A
6:00 am36 °FChilly.3 mph89%30.14 "HgN/A
5:00 am36 °FChilly.5 mph89%30.14 "HgN/A
2:00 am36 °FChilly.3 mph88%30.15 "HgN/A
1:00 am35 °FChilly.5 mph87%30.16 "HgN/A
Weather by CustomWeather, © 2016

See weather overviewHow to use our weather pages